| time (UTC) | temp F | wind direction | speed MPH | gust MPH | rain 1hr in | rain 24hr in | rain mn in | humidity % | barometer mb |
| 20260505053102 | 34 | 0 | 0.0 | 0.0 | 0.03 | 0.71 | 0.71 | 97 | 1014.2 |
| 20260505052556 | 34 | 0 | 0.0 | 0.0 | 0.04 | 0.71 | 0.71 | 97 | 1014.3 |
| 20260505052056 | 34 | 0 | 0.0 | 0.0 | 0.03 | 0.70 | 0.70 | 97 | 1014.3 |
| 20260505051556 | 34 | 0 | 0.0 | 0.0 | 0.04 | 0.70 | 0.70 | 97 | 1014.2 |
| 20260505051057 | 34 | 0 | 0.0 | 0.0 | 0.04 | 0.70 | 0.70 | 97 | 1014.4 |
| 20260505050556 | 34 | 0 | 0.0 | 0.0 | 0.05 | 0.70 | 0.70 | 97 | 1014.4 |
| 20260505041559 | 33 | 0 | 0.0 | 0.0 | 0.04 | 0.66 | 0.66 | 96 | 1014.3 |
| 20260505041059 | 33 | 0 | 0.0 | 0.0 | 0.05 | 0.66 | 0.66 | 96 | 1014.3 |
| 20260505040600 | 33 | 0 | 0.0 | 0.0 | 0.04 | 0.65 | 0.65 | 96 | 1014.3 |
| 20260505040058 | 33 | 0 | 0.0 | 0.0 | 0.03 | 0.64 | 0.64 | 97 | 1014.4 |
| 20260505035557 | 33 | 0 | 0.0 | 0.0 | 0.03 | 0.64 | 0.64 | 96 | 1014.2 |
| 20260505035059 | 33 | 0 | 0.0 | 0.0 | 0.04 | 0.64 | 0.64 | 96 | 1014.1 |
| 20260505034554 | 33 | 0 | 0.0 | 0.0 | 0.04 | 0.64 | 0.64 | 96 | 1013.7 |
| 20260505034059 | 33 | 0 | 0.0 | 0.0 | 0.03 | 0.63 | 0.63 | 96 | 1013.9 |
| 20260505033600 | 33 | 0 | 0.0 | 0.0 | 0.03 | 0.63 | 0.63 | 96 | 1014.4 |
| 20260505033056 | 33 | 0 | 0.0 | 0.0 | 0.03 | 0.63 | 0.63 | 96 | 1014.4 |
| 20260505032556 | 33 | 0 | 0.0 | 0.0 | 0.02 | 0.62 | 0.62 | 96 | 1014.2 |
| 20260505032055 | 33 | 0 | 0.0 | 1.0 | 0.02 | 0.62 | 0.62 | 96 | 1014.2 |
| 20260505031605 | 33 | 0 | 0.0 | 1.0 | 0.02 | 0.62 | 0.62 | 96 | 1014.3 |
| 20260505031057 | 33 | 0 | 0.0 | 1.0 | 0.01 | 0.61 | 0.61 | 96 | 1014.2 |
| 20260505030556 | 33 | 0 | 0.0 | 0.0 | 0.01 | 0.61 | 0.61 | 96 | 1014.2 |
| 20260505030103 | 33 | 0 | 0.0 | 0.0 | 0.02 | 0.61 | 0.61 | 96 | 1014.3 |
| 20260505025557 | 33 | 0 | 0.0 | 0.0 | 0.03 | 0.61 | 0.61 | 95 | 1014.1 |
| 20260505025058 | 33 | 0 | 0.0 | 0.0 | 0.02 | 0.60 | 0.60 | 95 | 1014.0 |
| 20260505024604 | 33 | 0 | 0.0 | 0.0 | 0.03 | 0.60 | 0.60 | 95 | 1013.9 |
| 20260505024056 | 33 | 0 | 0.0 | 0.0 | 0.04 | 0.60 | 0.60 | 95 | 1013.7 |
| 20260505023556 | 33 | 0 | 0.0 | 0.0 | 0.04 | 0.60 | 0.60 | 95 | 1013.7 |
| 20260505023056 | 33 | 0 | 0.0 | 0.0 | 0.06 | 0.60 | 0.60 | 95 | 1013.8 |
| 20260505022556 | 33 | 0 | 0.0 | 1.0 | 0.07 | 0.60 | 0.60 | 95 | 1013.9 |
| 20260505022056 | 33 | 0 | 0.0 | 1.0 | 0.08 | 0.60 | 0.60 | 95 | 1013.9 |
| 20260505021559 | 33 | 0 | 0.0 | 0.0 | 0.08 | 0.60 | 0.60 | 95 | 1014.1 |
| 20260505021056 | 33 | 0 | 0.0 | 0.0 | 0.08 | 0.60 | 0.60 | 95 | 1014.4 |
| 20260505020556 | 33 | 0 | 0.0 | 0.0 | 0.07 | 0.58 | 0.58 | 95 | 1014.1 |
| 20260505020057 | 33 | 0 | 0.0 | 0.0 | 0.08 | 0.58 | 0.58 | 95 | 1014.3 |
| 20260505015557 | 33 | 0 | 0.0 | 0.0 | 0.08 | 0.58 | 0.58 | 95 | 1014.1 |
| 20260505015059 | 33 | 0 | 0.0 | 0.0 | 0.10 | 0.58 | 0.58 | 95 | 1014.4 |
| 20260505014608 | 33 | 0 | 0.0 | 0.0 | 0.11 | 0.57 | 0.57 | 94 | 1014.3 |
| 20260505014057 | 33 | 0 | 0.0 | 0.0 | 0.12 | 0.56 | 0.56 | 94 | 1014.4 |
| 20260505013556 | 33 | 0 | 0.0 | 0.0 | 0.13 | 0.56 | 0.56 | 94 | 1014.5 |
| 20260505013057 | 33 | 0 | 0.0 | 1.0 | 0.13 | 0.54 | 0.54 | 94 | 1014.5 |
| 20260505012556 | 34 | 0 | 0.0 | 1.0 | 0.13 | 0.52 | 0.52 | 93 | 1014.7 |
| 20260505012056 | 34 | 0 | 0.0 | 1.0 | 0.12 | 0.52 | 0.52 | 92 | 1014.7 |
| 20260505011606 | 34 | 0 | 0.0 | 1.0 | 0.12 | 0.52 | 0.52 | 92 | 1014.8 |
| 20260505011057 | 35 | 151 | 0.0 | 1.0 | 0.12 | 0.52 | 0.52 | 91 | 1014.7 |
| 20260505010556 | 36 | 153 | 0.0 | 2.0 | 0.13 | 0.52 | 0.52 | 91 | 1014.7 |
| 20260505010055 | 36 | 0 | 0.0 | 2.0 | 0.12 | 0.51 | 0.51 | 93 | 1014.6 |
| 20260505005556 | 37 | 213 | 0.0 | 2.0 | 0.12 | 0.50 | 0.50 | 93 | 1014.6 |
| 20260505005059 | 37 | 0 | 0.0 | 3.0 | 0.10 | 0.48 | 0.48 | 93 | 1014.6 |
| 20260505004555 | 38 | 0 | 0.0 | 3.0 | 0.07 | 0.45 | 0.45 | 93 | 1014.6 |
| 20260505004057 | 38 | 236 | 1.0 | 3.0 | 0.07 | 0.44 | 0.44 | 94 | 1014.4 |
| 20260505003557 | 38 | 0 | 0.0 | 2.0 | 0.06 | 0.43 | 0.43 | 94 | 1014.3 |
| 20260505003056 | 39 | 0 | 0.0 | 2.0 | 0.04 | 0.41 | 0.41 | 93 | 1014.2 |
| 20260505002556 | 39 | 252 | 0.0 | 1.0 | 0.03 | 0.40 | 0.40 | 93 | 1014.1 |
| 20260505002056 | 39 | 0 | 0.0 | 1.0 | 0.03 | 0.40 | 0.40 | 94 | 1014.0 |
| 20260505001557 | 39 | 0 | 0.0 | 1.0 | 0.03 | 0.40 | 0.40 | 94 | 1014.0 |
| 20260505001057 | 40 | 0 | 0.0 | 2.0 | 0.03 | 0.40 | 0.40 | 94 | 1013.9 |
| 20260505000556 | 39 | 0 | 0.0 | 4.0 | 0.02 | 0.39 | 0.39 | 94 | 1013.9 |
| 20260505000115 | 40 | 0 | 0.0 | 4.0 | 0.03 | 0.39 | 0.39 | 93 | 1013.9 |
| 20260504235559 | 40 | 211 | 0.0 | 3.0 | 0.02 | 0.39 | 0.38 | 94 | 1014.1 |
| 20260504235058 | 40 | 342 | 0.0 | 6.0 | 0.02 | 0.39 | 0.38 | 94 | 1014.1 |
| 20260504234555 | 40 | 0 | 0.0 | 6.0 | 0.02 | 0.39 | 0.38 | 94 | 1013.9 |
| 20260504234056 | 40 | 315 | 0.0 | 4.0 | 0.02 | 0.38 | 0.37 | 94 | 1014.0 |
| 20260504233558 | 41 | 0 | 0.0 | 2.0 | 0.02 | 0.38 | 0.37 | 94 | 1013.9 |
| 20260504233109 | 41 | 0 | 0.0 | 3.0 | 0.03 | 0.38 | 0.37 | 94 | 1013.8 |
| 20260504232557 | 41 | 0 | 0.0 | 3.0 | 0.05 | 0.38 | 0.37 | 94 | 1013.6 |
| 20260504232056 | 41 | 312 | 0.0 | 2.0 | 0.06 | 0.38 | 0.37 | 95 | 1013.5 |
| 20260504231601 | 41 | 0 | 0.0 | 2.0 | 0.08 | 0.38 | 0.37 | 94 | 1013.6 |
| 20260504231056 | 41 | 0 | 0.0 | 2.0 | 0.09 | 0.38 | 0.37 | 94 | 1013.7 |
| 20260504230556 | 41 | 0 | 0.0 | 2.0 | 0.11 | 0.38 | 0.37 | 95 | 1013.7 |
| 20260504230057 | 41 | 296 | 0.0 | 2.0 | 0.11 | 0.37 | 0.36 | 95 | 1013.7 |
| 20260504225557 | 41 | 0 | 0.0 | 1.0 | 0.12 | 0.43 | 0.36 | 95 | 1014.0 |
| 20260504225057 | 41 | 0 | 0.0 | 2.0 | 0.12 | 0.43 | 0.36 | 95 | 1014.1 |
| 20260504224602 | 40 | 0 | 0.0 | 2.0 | 0.13 | 0.43 | 0.36 | 94 | 1014.0 |
| 20260504224057 | 41 | 0 | 0.0 | 2.0 | 0.12 | 0.42 | 0.35 | 94 | 1014.0 |
| 20260504223557 | 41 | 0 | 0.0 | 2.0 | 0.13 | 0.42 | 0.35 | 94 | 1014.1 |
| 20260504223129 | 41 | 207 | 0.0 | 2.0 | 0.12 | 0.41 | 0.34 | 94 | 1014.2 |
| 20260504222556 | 41 | 0 | 0.0 | 1.0 | 0.10 | 0.39 | 0.32 | 94 | 1014.1 |
| 20260504222057 | 41 | 0 | 0.0 | 2.0 | 0.10 | 0.38 | 0.31 | 93 | 1014.3 |
| 20260504221556 | 41 | 0 | 0.0 | 2.0 | 0.08 | 0.36 | 0.29 | 93 | 1014.5 |
| 20260504221100 | 41 | 0 | 0.0 | 1.0 | 0.08 | 0.35 | 0.28 | 94 | 1014.4 |
| 20260504220556 | 42 | 0 | 0.0 | 1.0 | 0.06 | 0.33 | 0.26 | 94 | 1014.4 |
| 20260504220057 | 42 | 0 | 0.0 | 1.0 | 0.06 | 0.32 | 0.25 | 94 | 1014.4 |
| 20260504215557 | 42 | 0 | 0.0 | 1.0 | 0.07 | 0.35 | 0.24 | 94 | 1014.2 |
| 20260504215057 | 42 | 0 | 0.0 | 1.0 | 0.08 | 0.35 | 0.24 | 94 | 1014.4 |
| 20260504214554 | 42 | 0 | 0.0 | 1.0 | 0.07 | 0.34 | 0.23 | 95 | 1014.4 |
| 20260504214057 | 42 | 0 | 0.0 | 1.0 | 0.07 | 0.34 | 0.23 | 95 | 1014.2 |
| 20260504213556 | 42 | 158 | 0.0 | 1.0 | 0.06 | 0.33 | 0.22 | 94 | 1014.4 |
| 20260504213105 | 42 | 0 | 0.0 | 0.0 | 0.06 | 0.33 | 0.22 | 93 | 1014.4 |
| 20260504212556 | 42 | 0 | 0.0 | 0.0 | 0.06 | 0.33 | 0.22 | 93 | 1014.4 |
| 20260504212056 | 42 | 0 | 0.0 | 1.0 | 0.06 | 0.32 | 0.21 | 93 | 1014.4 |
| 20260504211600 | 42 | 0 | 0.0 | 1.0 | 0.07 | 0.32 | 0.21 | 93 | 1014.2 |
| 20260504211057 | 42 | 0 | 0.0 | 1.0 | 0.07 | 0.31 | 0.20 | 93 | 1014.2 |
| 20260504210559 | 42 | 0 | 0.0 | 1.0 | 0.09 | 0.31 | 0.20 | 93 | 1014.2 |
| 20260504210101 | 42 | 0 | 0.0 | 1.0 | 0.09 | 0.30 | 0.19 | 93 | 1014.3 |
| 20260504205601 | 42 | 0 | 0.0 | 2.0 | 0.09 | 0.28 | 0.17 | 93 | 1014.2 |
| 20260504205056 | 42 | 0 | 0.0 | 2.0 | 0.10 | 0.27 | 0.16 | 91 | 1014.2 |
| 20260504204556 | 42 | 0 | 0.0 | 2.0 | 0.10 | 0.27 | 0.16 | 91 | 1014.3 |
| 20260504204057 | 42 | 0 | 0.0 | 1.0 | 0.11 | 0.27 | 0.16 | 92 | 1014.3 |
| 20260504203556 | 42 | 0 | 0.0 | 1.0 | 0.12 | 0.27 | 0.16 | 91 | 1014.2 |
| 20260504203109 | 42 | 0 | 0.0 | 1.0 | 0.13 | 0.27 | 0.16 | 92 | 1014.4 |
| 20260504202556 | 42 | 0 | 0.0 | 1.0 | 0.13 | 0.26 | 0.15 | 92 | 1014.5 |
| 20260504202057 | 42 | 0 | 0.0 | 1.0 | 0.14 | 0.26 | 0.15 | 90 | 1014.6 |
| 20260504201559 | 42 | 0 | 0.0 | 0.0 | 0.13 | 0.25 | 0.14 | 92 | 1014.6 |
| 20260504201056 | 42 | 0 | 0.0 | 3.0 | 0.13 | 0.24 | 0.13 | 91 | 1014.6 |
| 20260504200556 | 42 | 0 | 0.0 | 3.0 | 0.11 | 0.22 | 0.11 | 90 | 1014.6 |
| 20260504200120 | 43 | 0 | 0.0 | 3.0 | 0.09 | 0.20 | 0.09 | 90 | 1014.7 |
| 20260504195555 | 43 | 0 | 0.0 | 2.0 | 0.08 | 0.19 | 0.08 | 92 | 1014.8 |
| 20260504195056 | 43 | 0 | 0.0 | 2.0 | 0.06 | 0.17 | 0.06 | 91 | 1014.7 |
| 20260504194554 | 43 | 0 | 0.0 | 1.0 | 0.05 | 0.16 | 0.05 | 91 | 1014.6 |
| 20260504194057 | 43 | 0 | 0.0 | 1.0 | 0.05 | 0.16 | 0.05 | 89 | 1014.6 |
| 20260504193557 | 44 | 261 | 0.0 | 1.0 | 0.03 | 0.14 | 0.03 | 90 | 1014.5 |
| 20260504193056 | 44 | 0 | 0.0 | 1.0 | 0.03 | 0.14 | 0.03 | 90 | 1014.5 |
| 20260504192556 | 44 | 0 | 0.0 | 1.0 | 0.02 | 0.13 | 0.02 | 89 | 1014.4 |
| 20260504192056 | 44 | 0 | 0.0 | 1.0 | 0.01 | 0.12 | 0.01 | 88 | 1014.5 |
| 20260504191601 | 44 | 0 | 0.0 | 1.0 | 0.01 | 0.12 | 0.01 | 88 | 1014.6 |
| 20260504191056 | 44 | 0 | 0.0 | 1.0 | 0.00 | 0.11 | 0.00 | 87 | 1014.5 |
| 20260504190556 | 44 | 0 | 0.0 | 2.0 | 0.00 | 0.11 | 0.00 | 87 | 1014.5 |
| 20260504190057 | 44 | 0 | 0.0 | 2.0 | 0.00 | 0.11 | 0.00 | 86 | 1014.4 |
| 20260504185556 | 44 | 0 | 0.0 | 2.0 | 0.00 | 0.11 | 0.00 | 85 | 1014.4 |
| 20260504185057 | 45 | 0 | 0.0 | 2.0 | 0.00 | 0.11 | 0.00 | 84 | 1014.5 |
| 20260504184558 | 45 | 0 | 0.0 | 2.0 | 0.00 | 0.11 | 0.00 | 83 | 1014.6 |
| 20260504184057 | 45 | 246 | 0.0 | 2.0 | 0.00 | 0.11 | 0.00 | 83 | 1014.5 |
| 20260504183557 | 45 | 300 | 0.0 | 1.0 | 0.00 | 0.11 | 0.00 | 83 | 1014.6 |
| 20260504183055 | 45 | 0 | 0.0 | 1.0 | 0.00 | 0.11 | 0.00 | 82 | 1014.5 |
| 20260504182555 | 45 | 0 | 0.0 | 2.0 | 0.00 | 0.11 | 0.00 | 82 | 1014.5 |
| 20260504182056 | 45 | 0 | 0.0 | 2.0 | 0.00 | 0.11 | 0.00 | 82 | 1014.4 |
| 20260504181557 | 45 | 0 | 0.0 | 2.0 | 0.00 | 0.11 | 0.00 | 81 | 1014.5 |
| 20260504181057 | 45 | 291 | 0.0 | 2.0 | 0.00 | 0.11 | 0.00 | 82 | 1014.5 |
| 20260504180557 | 45 | 325 | 0.0 | 2.0 | 0.00 | 0.11 | 0.00 | 80 | 1014.6 |
| 20260504180056 | 45 | 0 | 0.0 | 3.0 | 0.00 | 0.11 | 0.00 | 81 | 1014.5 |
| 20260504175556 | 45 | 0 | 0.0 | 3.0 | 0.00 | 0.11 | 0.00 | 79 | 1014.5 |
| 20260504175056 | 45 | 325 | 0.0 | 3.0 | 0.00 | 0.11 | 0.00 | 79 | 1014.4 |
| 20260504174613 | 45 | 0 | 0.0 | 2.0 | 0.00 | 0.11 | 0.00 | 79 | 1014.3 |
| 20260504174056 | 46 | 0 | 0.0 | 3.0 | 0.00 | 0.11 | 0.00 | 82 | 1014.3 |
| 20260504173556 | 46 | 0 | 0.0 | 3.0 | 0.00 | 0.11 | 0.00 | 81 | 1014.3 |
| 20260504173055 | 46 | 257 | 0.0 | 2.0 | 0.00 | 0.11 | 0.00 | 84 | 1014.2 |
| 20260504172556 | 46 | 0 | 0.0 | 3.0 | 0.00 | 0.11 | 0.00 | 85 | 1014.2 |
| 20260504172057 | 45 | 0 | 0.0 | 3.0 | 0.00 | 0.11 | 0.00 | 85 | 1014.2 |
| 20260504171559 | 45 | 0 | 0.0 | 0.0 | 0.00 | 0.11 | 0.00 | 85 | 1014.1 |
| 20260504171057 | 45 | 0 | 0.0 | 2.0 | 0.00 | 0.11 | 0.00 | 86 | 1014.1 |
| 20260504170557 | 45 | 0 | 0.0 | 2.0 | 0.00 | 0.11 | 0.00 | 84 | 1014.0 |
| 20260504170103 | 45 | 0 | 0.0 | 2.0 | 0.00 | 0.11 | 0.00 | 85 | 1014.0 |
| 20260504160104 | 45 | 0 | 0.0 | 2.0 | 0.00 | 0.11 | 0.00 | 82 | 1014.0 |
| 20260504151056 | 43 | 0 | 0.0 | 2.0 | 0.00 | 0.11 | 0.00 | 87 | 1013.9 |
| 20260504150556 | 43 | 0 | 0.0 | 2.0 | 0.00 | 0.11 | 0.00 | 87 | 1013.9 |
| 20260504150106 | 43 | 0 | 0.0 | 3.0 | 0.00 | 0.11 | 0.00 | 89 | 1013.9 |
| 20260504141056 | 39 | 0 | 0.0 | 0.0 | 0.00 | 0.11 | 0.00 | 94 | 1013.8 |
| 20260504140556 | 39 | 0 | 0.0 | 0.0 | 0.00 | 0.11 | 0.00 | 94 | 1013.7 |
| 20260504130556 | 39 | 0 | 0.0 | 0.0 | 0.00 | 0.11 | 0.00 | 93 | 1013.7 |
| 20260504110559 | 40 | 0 | 0.0 | 0.0 | 0.00 | 0.11 | 0.00 | 93 | 1014.1 |
| 20260504110303 | 40 | 0 | 0.0 | 0.0 | 0.00 | 0.11 | 0.00 | 93 | 1014.1 |
| 20260504100556 | 39 | 0 | 0.0 | 0.0 | 0.00 | 0.11 | 0.00 | 94 | 1014.2 |
| 20260504090104 | 40 | 0 | 0.0 | 0.0 | 0.00 | 0.11 | 0.00 | 93 | 1014.6 |
| 20260504081557 | 40 | 0 | 0.0 | 0.0 | 0.00 | 0.11 | 0.00 | 93 | 1015.1 |
| 20260504081057 | 40 | 0 | 0.0 | 0.0 | 0.00 | 0.11 | 0.00 | 93 | 1015.1 |
| 20260504080600 | 40 | 0 | 0.0 | 0.0 | 0.00 | 0.11 | 0.00 | 93 | 1015.1 |